Regional Weather Roundup
Issued by NWS Pendleton, OR

Home | Current Version | Previous Version | Text Only | Print | Product List | Glossary On
Versions: 1 2 3 4 5 6 7 8 9 10 11 12 13 14 15 16 17 18 19 20 21 22 23 24 25 26 27 28 29 30 31 32 33 34 35 36 37 38 39 40 41 42 43 44 45 46 47 48 49 50
000
ASUS46 KPDT 191110
RWRPDT
PENDLETON REGIONAL WEATHER ROUNDUP
NATIONAL WEATHER SERVICE PENDLETON OREGON
300 AM PST FRI DEC 19 2014

NOTE: FAIR INDICATES FEW OR NO CLOUDS BELOW 12,000 FEET WITH NO
SIGNIFICANT WEATHER AND/OR OBSTRUCTIONS TO VISIBILITY.

# INDICATES UNOFFICIAL STATION AND DATA

WAZ520-191210-
EAST SLOPES OF WASHINGTON CASCADES

CITY            SKY/WX      TMP DP  RH  WIND    PRES   REMARKS
#BULLFROG 2SW   N/A         35  35  100 S1      27.44R
#BUMPING DAM    N/A         32  N/A N/A NW7     N/A
#CLE ELUM HS    N/A         34  33  96  CALM    29.82R
#CLE ELUM 2NW   N/A         34  34  100 CALM    N/A
#CLE ELUM LAKE  N/A         33  32  96  CALM    29.89R
#CLIFFDEL 2NW   N/A         33  33  100 CALM    N/A
#EASTON DOT     N/A         33  32  96  N8      N/A
#GLENWOOD       N/A         38  38  100 S2      29.91R
#MANASTASH CYN  N/A         32  30  92  CALM    29.80S
#NELSON         N/A         33  32  96  CALM    29.91S
#NELSON 3SW     N/A         31  30  96  CALM    30.11R
#NILE           N/A         35  34  96  CALM    29.14S
#PEOH POINT     N/A         30  30  100 E3      N/A
#SNOWDEN        N/A         37  36  96  CALM    N/A
#SOUTH BLEWITT  N/A         33  33  100 CALM    N/A
#TEANAWAY 4NE   N/A         35  35  100 CALM    N/A
#TROUT LAKE HS  N/A         38  38  100 CALM    N/A
#TROUT LAKE 1NE N/A         36  35  96  CALM    29.93R
$$

WAZ521-191210-
SIMCOE HIGHLANDS

CITY            SKY/WX      TMP DP  RH  WIND    PRES   REMARKS
#BICKLETON HS   N/A         38  35  89  CALM    34.25S
#SATUS PASS DOT N/A         37  36  96  CALM    N/A
#CENTERVILLE 4W N/A         38  36  92  N1      29.62S
#CENTERVILLE 1SWN/A         35  33  92  CALM    29.89R
#GOLDENDALE     N/A         37  37  100 CALM    N/A
#GOLDENDALE 1NE N/A         37  37  100 S2      N/A
#GOLDENDALE 1S  N/A         36  35  96  CALM    29.85R
#GOLDENDALE 5WNWN/A         36  35  96  CALM    29.90R
#GOODNOE HILLS  N/A         37  34  89  W8      N/A
#LYLE 6NE       N/A         35  35  100 CALM    29.90S
$$

WAZ026-191210-
KITTITAS VALLEY

CITY            SKY/WX      TMP DP  RH  WIND    PRES   REMARKS
ELLENSBURG AP   CLOUDY      38  34  85  CALM    29.83F FOG
#ELLENSBURG CWU N/A         36  35  96  CALM    29.83F
#ELLENSBURG 3NE N/A         35  34  96  CALM    29.85F
#ELLENSBURG     N/A         38  38  100 CALM    N/A
#KITTITAS 3S    N/A         34  33  96  CALM    29.87F
#THORP 6N       N/A         33  33  100 CALM    29.91S
$$

WAZ027-191210-
YAKIMA VALLEY

CITY            SKY/WX      TMP DP  RH  WIND    PRES   REMARKS
YAKIMA AIRPORT  CLOUDY      39  37  92  CALM    29.87F FOG
YAKIMA-VAGABOND FOG         37  36  96  SW5     29.85F VSB 3/4
#DONALD 2NE     N/A         37  37  100 CALM    28.73S
#GRANDVIEW      N/A         37  36  96  N1      29.92F
#MABTON         N/A         38  38  100 CALM    29.89F
#MOXEE 2E       N/A         37  37  100 CALM    29.94R
#NACHES 2SW     N/A         37  36  96  CALM    29.83F
#TERRACE HTS    N/A         36  35  96  CALM    29.86F
#WAPATO 4NE     N/A         37  37  100 CALM    28.73S
#WEST VALLEY    N/A         37  36  96  CALM    29.87F
#W YAKIMA       N/A         37  36  96  CALM    29.89F
#WHITE SWAN 5E  N/A         36  35  96  CALM    29.91S
#WILEY CITY 3W  N/A         35  32  89  CALM    29.88R
$$

WAZ028-191210-
LOWER COLUMBIA BASIN...WASHINGTON

CITY            SKY/WX      TMP DP  RH  WIND    PRES   REMARKS
PASCO           LGT RAIN    38  38  100 W3      29.91R FOG
PROSSER AWOS    N/A         37  37  100 SW3     29.92F
RICHLAND AWOS   LGT RAIN    39  N/A N/A W5      29.91R
#BASIN CITY 5SW N/A         38  37  96  W2      29.89R
#BENTON CITY    N/A         37  36  96  W5      29.83R
#CONNELL 5N     N/A         41  39  93  CALM    29.90R
#CONNELL 5NW    N/A         39  38  96  CALM    29.86R
#ELTOPIA        N/A         39  38  96  CALM    29.87R
#ELTOPIA 6NW    N/A         37  37  100 NW7     28.85R
#KAHLOTUS       N/A         41  39  93  S5      29.89S
#KENNEWICK      N/A         35  35  100 S1      27.44R
#KENNEWICK 3S   N/A         37  36  96  CALM    29.92R
#PASCO-BROADMOORN/A         39  37  92  W1      29.82R
#PATERSON       N/A         38  37  96  NW2     29.89R
#PROSSER DOT    N/A         38  38  100 CALM    N/A
#PROSSER        N/A         37  36  96  CALM    29.91F
#SAGEMOOR 2W    N/A         38  37  96  CALM    29.75S
#TOUCHET 2S     N/A         38  37  96  W1      29.88R
#WEST PASCO     N/A         39  37  92  CALM    29.91R
$$

WAZ029-191210-
FOOTHILLS OF THE BLUES...WASHINGTON

CITY            SKY/WX      TMP DP  RH  WIND    PRES   REMARKS
WALLA WALLA AP  LGT RAIN    55  39  55  S18     29.84F
#COLLEGE PLACE  N/A         40  31  70  W76G97  29.88S WCI 23
#DAYTON SCHOOL  N/A         43  36  76  CALM    29.86F
#DELANEY DOT    N/A         41  39  93  SE2     N/A
#LOWDEN 2SE     N/A         38  37  96  CALM    29.83S
#PLEASANT VIEW 1N/A         40  38  92  CALM    29.94F
#PRESCOTT       N/A         40  39  96  CALM    29.87F
#SUDBURY        N/A         43  N/A N/A CALM    N/A
#WHITMAN COLLEGEN/A         53  42  66  S13     29.92S
#WAITSBURG 5S   N/A         49  41  74  S6      29.96S
#WALLA WALLA 5E N/A         53  40  61  S17G24  N/A
#WALLA WALLA U  N/A         39  38  96  CALM    29.88S
#WHITMAN MISSIONN/A         38  37  96  CALM    29.89F
$$

WAZ030-191210-
BLUE MOUNTAINS...WASHINGTON

CITY            SKY/WX      TMP DP  RH  WIND    PRES   REMARKS
#DIXIE 5SE      N/A         45  35  68  S15     29.78R WCI 38
#SKI BLUEWOOD   N/A         35  32  89  W7      29.97F
$$

ORZ009-041-WAZ024-191210-
COLUMBIA RIVER GORGE

CITY            SKY/WX      TMP DP  RH  WIND    PRES   REMARKS
HOOD RIVER AP   LGT DRIZZLE 39  37  92  CALM    29.92R
THE DALLES AP   CLOUDY      40  38  92  E5      29.92S FOG
#ARLINGTON AIRPON/A         38  37  96  W2      30.01S
#ARLINGTON HS   N/A         40  38  92  SW1     29.83S
#CELILO DOT     N/A         41  36  82  S2      N/A
#LYLE           N/A         40  39  96  E1      29.94R
#MARYHILL       N/A         38  38  100 CALM    N/A
#MARYHILL 2W    N/A         39  39  100 S1      N/A
#MOSIER 1S      N/A         37  36  96  CALM    29.91S
#MURDOCK        N/A         41  40  96  E1      29.95R
#RUFUS DOT      N/A         N/A N/A N/A CALM    N/A

$$

ORZ510-191210-
NORTH CENTRAL OREGON

CITY            SKY/WX      TMP DP  RH  WIND    PRES   REMARKS
#CHENOWITH 1W   N/A         36  36  100 E3      N/A
#COW CYN RST AREN/A         43  35  73  S10     N/A
#DUFUR 9E       N/A         35  35  100 SW8     29.98R
#GRASS VALLEY   N/A         35  35  100 CALM    N/A
#GRASS VALLEY 1SN/A         36  34  92  CALM    29.93R
#KENT DOT       N/A         43  31  62  SW14    N/A    WCI 36
#MAUPIN SCHOOL  N/A         38  37  96  CALM    29.89R
#MORO SCHOOL    N/A         35  35  100 CALM    29.88S
#SHANIKO 4NW    N/A         40  35  82  SW3     29.84R
#TYGH VALLEY 2NEN/A         38  37  96  CALM    29.91S
#WAPANITIA AIRPON/A         43  40  89  NW2     29.93R
#WASCO DOT      N/A         37  35  92  NW5     N/A
#WASCO 5NE      N/A         35  34  96  CALM    29.93S
$$

ORZ511-191210-
CENTRAL OREGON

CITY            SKY/WX      TMP DP  RH  WIND    PRES   REMARKS
BEND AIRPORT    MOCLDY      41  34  76  SW13    29.89R WCI 34
MADRAS AIRPORT  CLOUDY      45  36  70  S14     29.88S WCI 39
PRINEVILLE AP   CLOUDY      43  36  76  SE9     29.88S
REDMOND AIRPORT MOCLDY      40  35  82  S7      29.87S
#BEND 1SW       N/A         36  34  92  CALM    N/A
#BEND-AWBREY    N/A         38  36  92  S8      29.92R
#BEND-KIM LN    N/A         39  36  89  SW2     29.85R
#CROOKED RVR RANN/A         42  36  79  W3      29.90R
#CULVER         N/A         43  36  76  S7      29.84R
#LAKE BILLY CHINN/A         44  25  47  W5      29.98R
#POWELL BUTTE 3EN/A         44  35  70  S8      N/A
#POWELL BUTTE   N/A         43  34  70  SW9     29.52S
#PRINEVILLE 3N  N/A         43  37  79  S3      29.87S
#WARM SPRINGS   N/A         47  39  74  CALM    29.83S


ORZ509-191210-
EAST SLOPES OF OREGON CASCADES

CITY            SKY/WX      TMP DP  RH  WIND    PRES   REMARKS
#BLUE BOX PASS  N/A         35  -13 12  CALM    N/A
#BLACK BUTTE RNCN/A         38  37  96  CALM    29.96R
#CAMP SHERMAN   N/A         36  35  96  CALM    29.92R
#LA PINE DOT    N/A         35  33  92  SW1     N/A
#LA PINE 4NW    N/A         34  31  89  CALM    29.99R
#LAVA BUTTE DOT N/A         35  34  96  S1      N/A
#MT BACHELOR-MIDN/A         27  26  96  N21G36  N/A    WCI 13
#SISTERS AIRPOR N/A         36  36  100 CALM    30.17S
#SISTERS ODOT   N/A         36  N/A N/A CALM    N/A
#SISTERS 3N     N/A         35  34  96  CALM    29.93R
#SUNRIVER       N/A         36  35  96  S1      29.83R
#TUMALO 3W      N/A         38  34  85  SE9     29.79R
#WANOGA BUTTE D N/A         30  30  100 W9      N/A

$$

ORZ044-191210-
LOWER COLUMBIA BASIN...OREGON

CITY            SKY/WX      TMP DP  RH  WIND    PRES   REMARKS
HERMISTON       LGT RAIN    38  37  96  W6      29.87R FOG
#BOARDMAN 3W    N/A         39  38  96  SW6     29.62S
#BOARDMAN 8SW   N/A         38  37  96  NE2     29.91R
#ECHO 8SW       N/A         38  36  92  W3      29.85R
#IONE SCHOOL    N/A         37  28  70  SW3     29.88S
#IRRIGON 4NW    N/A         40  40  100 W6      N/A
#UMATILLA SCHOOLN/A         37  37  100 W3      29.92R
#UMATILLA       N/A         40  36  85  W7      29.86R
$$

ORZ507-191210-
NORTHERN FOOTHILLS OF THE BLUES

CITY            SKY/WX      TMP DP  RH  WIND    PRES   REMARKS
PENDLETON AIRPT LGT RAIN    46  39  76  VRB3    29.86R
#ADAMS 3WNW     N/A         43  41  93  E1      29.89R
#ATHENA         N/A         46  41  83  E2      29.90R
#CAYUSE         N/A         48  39  71  SE28G41 29.85R WCI 40
#HELIX SCHOOL   N/A         45  41  86  S9      29.89R
#HELIX 3N       N/A         45  40  82  S15G25  29.84R WCI 38
#HOLDMAN 5SE    N/A         45  42  89  CALM    29.87R
#HOLDMAN 6E     N/A         45  41  86  NW5     29.70R
#M-F GROVE ELEM N/A         51  40  66  SE7     29.84R
#M-FREEWATER 5SEN/A         50  41  71  E15     29.86R
#PENDLETON DNTN N/A         45  44  96  CALM    28.67R
#PDT AQUATIC CTRN/A         48  47  96  N1      29.85R
#PENDLETON 5NE  N/A         46  41  83  CALM    29.83R
#PDT SUNRIDGE   N/A         48  42  80  CALM    29.87R
#PENDLETON 7NW  N/A         43  39  86  CALM    27.27F
#PILOT ROCK     N/A         53  34  48  S9      29.85R
#TUTUILLA       N/A         49  41  74  SW2     29.89R
#UMAPINE 2E     N/A         47  46  96  S6      29.81F
#WESTON SCHOOL  N/A         46  36  68  S9      29.85R

$$

ORZ508-191210-
SOUTHERN FOOTHILLS OF THE BLUES

CITY            SKY/WX      TMP DP  RH  WIND    PRES   REMARKS
LEXINGTON       CLOUDY      50  37  61  S16G26  29.85S
#AJAX           N/A         37  32  82  NW1     29.81R
#CONDON SCHOOL  N/A         44  38  79  CALM    29.82R
#CONDON 5W      N/A         41  35  79  S8      29.82R
#FOSSIL SCHOOL  N/A         44  38  79  E5      29.85R
#HEPPNER EOC    N/A         47  37  68  SE7G26  29.82S
#HEPPNER 4NE    N/A         45  36  70  W2      29.86S
#LEXINGTON 2SE  N/A         51  39  63  S15G24  29.82S
#MIKKALO        N/A         35  33  92  CALM    29.87R
#OLEX 4N        N/A         36  35  96  SW3     29.87S
#RUGGS 5NE      N/A         44  35  70  N8      30.01R
#RUGGS 2SW      N/A         44  36  73  S14     29.89S WCI 37

$$

ORZ502-503-191210-
BLUE MOUNTAINS

CITY            SKY/WX      TMP DP  RH  WIND    PRES   REMARKS
MEACHAM         LGT RAIN    38  33  82  CALM    29.88F
#BATTLE MTN DOT N/A         36  34  92  S8      N/A
#HARDMAN 10S    N/A         34  33  96  E5      30.07F
#HEPPNER 15SE   N/A         37  35  92  SE2     29.74S
#LADD CYN SMT   N/A         38  30  73  SE21    N/A    WCI 28
#LADD CREEK ODOTN/A         40  18  41  SW8     N/A
#LONG CREEK HS  N/A         41  39  93  CALM    29.84R
#N POWDER DOT   N/A         39  34  82  SE22G30 N/A    WCI 29
#PIKES PEAK     N/A         44  35  70  S31G43  27.99S WCI 34
#TOLLGATE       N/A         33  32  96  S2      29.83S
#TROY SCHOOL    N/A         37  36  96  CALM    29.85F
#UKIAH          N/A         37  35  92  CALM    30.00R
#WESTON 4E      N/A         40  36  85  E10     29.86R
$$

ORZ505-191210-
JOHN DAY BASIN

CITY            SKY/WX      TMP DP  RH  WIND    PRES   REMARKS
JOHN DAY        LGT DRIZZLE 42  36  79  S16G26  29.92S WCI 34
#JOHN DAY KJDY  N/A         44  44  100 CALM    30.06R
#DAYVILLE SCHOOLN/A         32  29  89  CALM    30.16S
#MONUMENT HS    N/A         43  36  76  N10     29.92R
#MT. VERNON 5SE N/A         37  34  89  E5      29.88S
#WINLOCK        N/A         40  38  92  CALM    29.97S
$$

ORZ506-191210-
OCHOCO AND JOHN DAY HIGHLANDS

CITY            SKY/WX      TMP DP  RH  WIND    PRES   REMARKS
#BUCK CREEK DOT N/A         39  38  96  E9      N/A
#HORSE RIDGE DO N/A         39  33  79  SE10    N/A
#KEYES SMT DOT  N/A         38  33  82  CALM    N/A
#PRAIRIE CITY   N/A         40  30  67  E6      30.02F
#SENECA         N/A         33  N/A N/A NE1     N/A
#SENECA 9NW     N/A         33  32  96  CALM    30.01F
$$

ORZ049-191210-
GRANDE RONDE VALLEY

CITY            SKY/WX      TMP DP  RH  WIND    PRES   REMARKS
LA GRANDE       MOCLDY      45  30  55  S20G28  29.92F WCI 37
#COVE           N/A         46  40  79  SE20    30.03S WCI 38
#COVE SCHOOL    N/A         46  34  63  SE13    29.90F WCI 40
#COVE 6NW       N/A         43  35  73  S3      30.01F
#ELGIN 3N       N/A         42  32  67  S14     29.66F WCI 35
#ELGIN 1E       N/A         43  35  73  CALM    N/A
#IMBLER SCHOOL  N/A         42  35  76  S10     29.89F
#ISLAND CITY 4N N/A         45  44  96  CALM    29.88R
#LADD CYN DOT   N/A         42  33  70  S29G38  N/A    WCI 31
#UNION 1S       N/A         44  35  70  S9      29.88F
$$

ORZ050-191210-
WALLOWA COUNTY

CITY            SKY/WX      TMP DP  RH  WIND    PRES   REMARKS
#ENTERPRISE AP  N/A         31  29  92  CALM    29.87F
#ENTERPRISE HS  N/A         32  31  96  SE1     29.95F
#IMNAHA SCHOOL  N/A         49  35  58  S13     29.94F WCI 44
#IMNAHA 10S     N/A         46  33  60  W16G33  29.95F WCI 39
#JOSEPH 3N      N/A         30  30  100 CALM    29.95F
#JOSEPH 3W      N/A         34  29  82  CALM    29.75F
#LOSTINE        N/A         32  31  96  CALM    29.83F
#MT HOWARD 8000 N/A         26  23  88  S14G37  29.84F WCI 14
#PROMISE 1S     N/A         34  32  92  CALM    30.09F
#SHEEP RDG 7000 N/A         31  26  81  CALM    29.98F
#WALLOWA SCHOOL N/A         33  32  96  CALM    30.99F



$$



USA.gov is the U.S. government's official web portal to all federal, state and local government web resources and services.